Indiana, PA

1:30 PM EDT on June 23, 2017 (GMT -0400)
Indiana County-Stewart

Weather History for KIDI - January, 2013

Change the Weather History Date:

Tuesday, January 8, 2013

  Actual Average Record
Temperature  
Mean Temperature 27 °F -  
Max Temperature 42 °F 33 °F 68 °F (1998)
Min Temperature 12 °F 16 °F -7 °F (1977)
Degree Days  
Heating Degree Days 38    
Moisture  
Dew Point 22 °F    
Average Humidity 89    
Maximum Humidity 100    
Minimum Humidity 57    
Precipitation  
Precipitation 0.00 in - - ()
Sea Level Pressure  
Sea Level Pressure 30.30 in    
Wind  
Wind Speed 2 mph (SSW)    
Max Wind Speed 10 mph    
Max Gust Speed -    
Visibility 9 miles    
Events      
Averages and records for this station are not official NWS values.
T = Trace of Precipitation, MM = Missing Value Source: NWS Daily Summary

Daily Weather History Graph

Daily Weather History Graph

Search for Another Location

Airport or City:

Trip Planner

Search our weather history database for the weather conditions in past years. The results will help you decide how hot, cold, wet, or windy it might be!

Date:

Astronomy

Jan. 08, 2013 Rise Set
Actual Time 7:40 AM EST 5:06 PM EST
Civil Twilight 7:09 AM EST 5:37 PM EST
Nautical Twilight 6:35 AM EST 6:11 PM EST
Astronomical Twilight 6:02 AM EST 6:44 PM EST
Moon 4:10 AM EST (1/8) 2:07 PM EST (1/8)
Length of Visible Light 10h 27m
Length of Day
9h 26m
Waning Crescent, 14% of the Moon is Illuminated
Jan 8
Waning Crescent
Jan 11
New
Jan 18
First Quarter
Jan 26
Full
Feb 3
Last Quarter

Hourly Weather History & Observations

Time (EST) Temp. Windchill Dew Point Humidity Pressure Visibility Wind Dir Wind Speed Gust Speed Precip Events Conditions
12:15 AM 17.6 °F 12.3 °F 17.6 °F 100% 30.26 in 5.0 mi SE 3.5 mph - N/A   Unknown
12:35 AM 17.6 °F - 17.6 °F 100% 30.25 in 7.0 mi Calm Calm - N/A   Unknown
12:55 AM 15.8 °F 10.2 °F 15.8 °F 100% 30.24 in 7.0 mi ESE 3.5 mph - N/A   Unknown
1:15 AM 17.6 °F - 17.6 °F 100% 30.23 in 5.0 mi Calm Calm - N/A   Unknown
1:35 AM 15.8 °F - 15.8 °F 100% 30.23 in 7.0 mi Calm Calm - N/A   Unknown
1:55 AM 17.6 °F - 17.6 °F 100% 30.24 in 7.0 mi Calm Calm - N/A   Unknown
2:15 AM 15.8 °F - 15.8 °F 100% 30.25 in 7.0 mi Calm Calm - N/A   Unknown
2:35 AM 14.0 °F - 14.0 °F 100% 30.26 in 7.0 mi Calm Calm - N/A   Unknown
2:55 AM 14.0 °F 8.2 °F 14.0 °F 100% 30.26 in 7.0 mi East 3.5 mph - N/A   Unknown
3:15 AM 14.0 °F 6.5 °F 14.0 °F 100% 30.26 in 7.0 mi East 4.6 mph - N/A   Unknown
3:35 AM 14.0 °F 8.2 °F 14.0 °F 100% 30.25 in 7.0 mi East 3.5 mph - N/A   Unknown
3:55 AM 15.8 °F - 15.8 °F 100% 30.25 in 7.0 mi Calm Calm - N/A   Unknown
4:15 AM 15.8 °F - 15.8 °F 100% 30.25 in 7.0 mi Calm Calm - N/A   Unknown
4:35 AM 15.8 °F - 15.8 °F 100% 30.25 in 7.0 mi Calm Calm - N/A   Unknown
4:55 AM 14.0 °F - 14.0 °F 100% 30.25 in 7.0 mi Calm Calm - N/A   Unknown
5:15 AM 15.8 °F - 15.8 °F 100% 30.26 in 7.0 mi Calm Calm - N/A   Unknown
5:35 AM 12.2 °F 6.1 °F 12.2 °F 100% 30.27 in 7.0 mi East 3.5 mph - N/A   Unknown
5:55 AM 14.0 °F 8.2 °F 14.0 °F 100% 30.27 in 7.0 mi East 3.5 mph - N/A   Unknown
6:15 AM 14.0 °F - 14.0 °F 100% 30.28 in 7.0 mi Calm Calm - N/A   Unknown
6:35 AM 12.2 °F 6.1 °F 12.2 °F 100% 30.28 in 7.0 mi ESE 3.5 mph - N/A   Unknown
6:55 AM 12.2 °F - 12.2 °F 100% 30.29 in 7.0 mi Calm Calm - N/A   Unknown
7:15 AM 12.2 °F - 12.2 °F 100% 30.29 in 7.0 mi Calm Calm - N/A   Unknown
7:35 AM 12.2 °F - 12.2 °F 100% 30.30 in 7.0 mi Calm Calm - N/A   Unknown
7:55 AM 14.0 °F - 14.0 °F 100% 30.31 in 7.0 mi Calm Calm - N/A   Unknown
8:35 AM 15.8 °F - 15.8 °F 100% 30.31 in 5.0 mi Calm Calm - N/A   Unknown
8:55 AM 17.6 °F - 17.6 °F 100% 30.31 in 7.0 mi Calm Calm - N/A   Unknown
9:15 AM 23.0 °F - 21.2 °F 93% 30.31 in 10.0 mi Calm Calm - N/A   Unknown
9:35 AM 24.8 °F 20.5 °F 23.0 °F 93% 30.31 in 10.0 mi WSW 3.5 mph - N/A   Unknown
9:55 AM 26.6 °F - 24.8 °F 93% 30.31 in 10.0 mi Calm Calm - N/A   Unknown
10:15 AM 26.6 °F 21.2 °F 23.0 °F 86% 30.33 in 10.0 mi WSW 4.6 mph - N/A   Unknown
10:35 AM 28.4 °F 24.6 °F 23.0 °F 80% 30.34 in 10.0 mi WSW 3.5 mph - N/A   Unknown
10:55 AM 30.2 °F 25.4 °F 24.8 °F 80% 30.34 in 10.0 mi SW 4.6 mph - N/A   Unknown
11:15 AM 32.0 °F - 24.8 °F 75% 30.34 in 10.0 mi Calm Calm - N/A   Unknown
11:35 AM 33.8 °F - 24.8 °F 70% 30.33 in 10.0 mi Calm Calm - N/A   Unknown
11:55 AM 33.8 °F - 26.6 °F 75% 30.32 in 10.0 mi Calm Calm - N/A   Unknown
12:15 PM 33.8 °F - 26.6 °F 75% 30.32 in 10.0 mi Calm Calm - N/A   Unknown
12:35 PM 37.4 °F - 26.6 °F 65% 30.31 in 10.0 mi Calm Calm - N/A   Unknown
12:55 PM 37.4 °F 34.9 °F 28.4 °F 70% 30.30 in 10.0 mi West 3.5 mph - N/A   Unknown
1:15 PM 39.2 °F 35.0 °F 28.4 °F 65% 30.30 in 10.0 mi West 5.8 mph - N/A   Unknown
1:35 PM 39.2 °F - 28.4 °F 65% 30.30 in 10.0 mi Calm Calm - N/A   Unknown
1:55 PM 39.2 °F - 28.4 °F 65% 30.30 in 10.0 mi Calm Calm - N/A   Unknown
2:15 PM 41.0 °F 38.0 °F 28.4 °F 61% 30.31 in 10.0 mi SW 4.6 mph - N/A   Unknown
2:55 PM 42.8 °F 37.0 °F 28.4 °F 57% 30.31 in 10.0 mi SW 10.4 mph - N/A   Unknown
3:15 PM 42.8 °F 39.3 °F 28.4 °F 57% 30.31 in 10.0 mi WSW 5.8 mph - N/A   Unknown
3:35 PM 41.0 °F 37.1 °F 28.4 °F 61% 30.32 in 10.0 mi WSW 5.8 mph - N/A   Unknown
3:55 PM 41.0 °F 38.0 °F 28.4 °F 61% 30.32 in 10.0 mi WSW 4.6 mph - N/A   Unknown
4:15 PM 39.2 °F 34.2 °F 28.4 °F 65% 30.33 in 10.0 mi WSW 6.9 mph - N/A   Unknown
4:35 PM 39.2 °F 37.0 °F 28.4 °F 65% 30.33 in 10.0 mi SSW 3.5 mph - N/A   Unknown
4:55 PM 39.2 °F 37.0 °F 28.4 °F 65% 30.33 in 10.0 mi SSW 3.5 mph - N/A   Unknown
5:15 PM 37.4 °F 34.9 °F 28.4 °F 70% 30.33 in 10.0 mi South 3.5 mph - N/A   Unknown
5:35 PM 35.6 °F - 28.4 °F 75% 30.33 in 10.0 mi Calm Calm - N/A   Unknown
5:55 PM 35.6 °F - 28.4 °F 75% 30.33 in 10.0 mi Calm Calm - N/A   Unknown
6:15 PM 35.6 °F - 28.4 °F 75% 30.33 in 10.0 mi Calm Calm - N/A   Unknown
6:35 PM 33.8 °F - 28.4 °F 81% 30.33 in 10.0 mi Calm Calm - N/A   Unknown
6:55 PM 30.2 °F - 28.4 °F 93% 30.33 in 10.0 mi Calm Calm - N/A   Unknown
7:15 PM 28.4 °F - 28.4 °F 100% 30.34 in 10.0 mi Calm Calm - N/A   Unknown
7:35 PM 26.6 °F - 26.6 °F 100% 30.33 in 10.0 mi Calm Calm - N/A   Unknown
7:55 PM 26.6 °F - 26.6 °F 100% 30.32 in 10.0 mi Calm Calm - N/A   Unknown
8:15 PM 26.6 °F - 26.6 °F 100% 30.32 in 10.0 mi Calm Calm - N/A   Unknown
8:35 PM 26.6 °F - 26.6 °F 100% 30.33 in 10.0 mi Calm Calm - N/A   Unknown
8:55 PM 24.8 °F 19.1 °F 24.8 °F 100% 30.33 in 10.0 mi ESE 4.6 mph - N/A   Unknown
9:15 PM 26.6 °F 22.6 °F 26.6 °F 100% 30.33 in 10.0 mi East 3.5 mph - N/A   Unknown
9:35 PM 24.8 °F - 24.8 °F 100% 30.32 in 10.0 mi Calm Calm - N/A   Unknown
9:55 PM 24.8 °F - 24.8 °F 100% 30.32 in 10.0 mi Calm Calm - N/A   Unknown
10:15 PM 24.8 °F - 24.8 °F 100% 30.32 in 10.0 mi Calm Calm - N/A   Unknown
10:35 PM 23.0 °F - 23.0 °F 100% 30.32 in 10.0 mi Calm Calm - N/A   Unknown
10:55 PM 24.8 °F - 24.8 °F 100% 30.32 in 10.0 mi Calm Calm - N/A   Unknown
11:15 PM 23.0 °F - 23.0 °F 100% 30.31 in 10.0 mi Calm Calm - N/A   Unknown
11:35 PM 24.8 °F - 24.8 °F 100% 30.30 in 10.0 mi Calm Calm - N/A   Unknown